DLH065 EDDC-EDDF

Flight info

Callsign DLH065
Flight time 0h 40m
Altitude 38000
Route ABKIS4W ABKIS Z715 NURGO T170 GAPLA T178 KERAX KERAX5A
Aircraft A319/M-SDE2E3FGIJ1LORWXYZ/HB1

Departure

Time 2026-04-16 14:02
Airport Dresden Airport (EDDC)

Arrival

Time 2026-04-16 14:42
Airport Frankfurt Main Airport (EDDF)
Time Latitude Longitude Altitude Speed Heading
2026-04-16 13:39 51.12654 13.76474 748 ft 0 kts 221°
2026-04-16 13:54 51.12661 13.76483 753 ft 4 kts 221°
2026-04-16 13:54 51.12681 13.76511 752 ft 4 kts 221°
2026-04-16 13:55 51.12698 13.76541 748 ft 4 kts 255°
2026-04-16 13:55 51.12696 13.76576 748 ft 2 kts 310°
2026-04-16 13:55 51.12683 13.76600 751 ft 2 kts 311°
2026-04-16 13:55 51.12682 13.76602 748 ft 0 kts 311°
2026-04-16 13:57 51.12682 13.76601 751 ft 1 kts 311°
2026-04-16 13:58 51.12732 13.76509 752 ft 8 kts 311°
2026-04-16 13:58 51.12769 13.76442 753 ft 8 kts 311°
2026-04-16 13:58 51.12820 13.76433 754 ft 9 kts 28°
2026-04-16 13:58 51.12874 13.76504 751 ft 11 kts 40°
2026-04-16 13:59 51.12939 13.76593 750 ft 13 kts 41°
2026-04-16 13:59 51.13013 13.76696 752 ft 15 kts 41°
2026-04-16 13:59 51.13099 13.76815 749 ft 18 kts 41°
2026-04-16 13:59 51.13201 13.76956 743 ft 21 kts 41°
2026-04-16 14:00 51.13317 13.77116 741 ft 24 kts 41°
2026-04-16 14:00 51.13457 13.77309 731 ft 29 kts 41°
2026-04-16 14:00 51.13588 13.77488 721 ft 18 kts 41°
2026-04-16 14:00 51.13687 13.77625 716 ft 19 kts 40°
2026-04-16 14:01 51.13762 13.77721 713 ft 13 kts 22°
2026-04-16 14:01 51.13825 13.77649 715 ft 11 kts 310°
2026-04-16 14:01 51.13879 13.77549 720 ft 12 kts 311°
2026-04-16 14:01 51.13914 13.77465 722 ft 6 kts 262°
2026-04-16 14:02 51.13885 13.77418 722 ft 9 kts 219°
2026-04-16 14:02 51.13662 13.77114 731 ft 83 kts 221°
2026-04-16 14:02 51.13045 13.76263 769 ft 147 kts 224°
2026-04-16 14:02 51.12298 13.75157 1448 ft 146 kts 229°
2026-04-16 14:03 51.11557 13.74053 2236 ft 145 kts 227°
2026-04-16 14:03 51.10780 13.72920 2808 ft 161 kts 227°
2026-04-16 14:03 51.09902 13.71644 3270 ft 182 kts 225°
2026-04-16 14:03 51.08904 13.70204 3692 ft 207 kts 225°
2026-04-16 14:04 51.07783 13.68602 4233 ft 232 kts 225°
2026-04-16 14:04 51.06504 13.66788 4893 ft 256 kts 225°
2026-04-16 14:04 51.05135 13.64864 5816 ft 266 kts 224°
2026-04-16 14:04 51.03732 13.62908 6882 ft 271 kts 224°
2026-04-16 14:05 51.02301 13.60917 7895 ft 276 kts 224°
2026-04-16 14:05 51.01002 13.58712 8862 ft 280 kts 234°
2026-04-16 14:05 50.99810 13.56185 9876 ft 285 kts 238°
2026-04-16 14:05 50.98664 13.53552 10621 ft 299 kts 239°
2026-04-16 14:06 50.97468 13.50767 11168 ft 317 kts 239°
2026-04-16 14:06 50.96178 13.47821 12054 ft 323 kts 238°
2026-04-16 14:06 50.94882 13.44942 12992 ft 327 kts 237°
2026-04-16 14:06 50.93538 13.42015 13952 ft 330 kts 237°
2026-04-16 14:07 50.92171 13.39070 14801 ft 333 kts 236°
2026-04-16 14:07 50.90788 13.36110 15631 ft 336 kts 236°
2026-04-16 14:07 50.89391 13.33128 16460 ft 338 kts 237°
2026-04-16 14:07 50.87982 13.30122 17291 ft 341 kts 237°
2026-04-16 14:08 50.86562 13.27095 18111 ft 344 kts 237°
2026-04-16 14:08 50.85115 13.24006 18884 ft 346 kts 237°
2026-04-16 14:08 50.83675 13.20933 19592 ft 349 kts 237°
2026-04-16 14:08 50.82220 13.17845 20291 ft 351 kts 237°
2026-04-16 14:09 50.80753 13.14737 21001 ft 354 kts 237°
2026-04-16 14:09 50.79273 13.11601 21702 ft 357 kts 237°
2026-04-16 14:09 50.77781 13.08442 22399 ft 360 kts 237°
2026-04-16 14:09 50.76278 13.05260 23075 ft 363 kts 237°
2026-04-16 14:10 50.74760 13.02047 23759 ft 366 kts 237°
2026-04-16 14:10 50.73230 12.98813 24318 ft 369 kts 237°
2026-04-16 14:10 50.71688 12.95552 24880 ft 372 kts 237°
2026-04-16 14:10 50.70134 12.92272 25432 ft 375 kts 237°
2026-04-16 14:11 50.68567 12.88969 25980 ft 377 kts 238°
2026-04-16 14:11 50.66988 12.85649 26514 ft 380 kts 238°
2026-04-16 14:11 50.65400 12.82311 27042 ft 383 kts 238°
2026-04-16 14:11 50.63795 12.78945 27552 ft 385 kts 238°
2026-04-16 14:12 50.62177 12.75554 28006 ft 389 kts 238°
2026-04-16 14:12 50.60543 12.72135 28487 ft 393 kts 238°
2026-04-16 14:12 50.58891 12.68686 28989 ft 396 kts 238°
2026-04-16 14:12 50.57230 12.65221 29484 ft 398 kts 238°
2026-04-16 14:13 50.55556 12.61730 29992 ft 400 kts 238°
2026-04-16 14:13 50.53876 12.58226 30459 ft 403 kts 239°
2026-04-16 14:13 50.52185 12.54705 30868 ft 405 kts 239°
2026-04-16 14:13 50.50480 12.51168 31276 ft 407 kts 238°
2026-04-16 14:14 50.48766 12.47624 31666 ft 410 kts 238°
2026-04-16 14:14 50.47033 12.44054 32128 ft 410 kts 238°
2026-04-16 14:14 50.45310 12.40505 32698 ft 408 kts 239°
2026-04-16 14:14 50.43597 12.36972 33253 ft 406 kts 239°
2026-04-16 14:15 50.42024 12.33409 33791 ft 398 kts 249°
2026-04-16 14:15 50.41227 12.29304 34313 ft 384 kts 268°
2026-04-16 14:15 50.41391 12.25244 34724 ft 378 kts 284°
2026-04-16 14:15 50.42028 12.21183 35092 ft 379 kts 284°
2026-04-16 14:16 50.42590 12.17134 35433 ft 381 kts 282°
2026-04-16 14:16 50.43064 12.13030 35763 ft 383 kts 281°
2026-04-16 14:16 50.43482 12.08955 36089 ft 384 kts 280°
2026-04-16 14:16 50.43889 12.04811 36442 ft 385 kts 280°
2026-04-16 14:17 50.44300 12.00660 36749 ft 386 kts 280°
2026-04-16 14:17 50.44721 11.96503 37050 ft 387 kts 280°
2026-04-16 14:17 50.45154 11.92325 37351 ft 388 kts 280°
2026-04-16 14:17 50.45595 11.88140 37644 ft 389 kts 280°
2026-04-16 14:18 50.46041 11.83944 37927 ft 391 kts 280°
2026-04-16 14:18 50.46493 11.79730 38160 ft 393 kts 280°
2026-04-16 14:18 50.47385 11.71280 38217 ft 392 kts 280°
2026-04-16 14:19 50.48259 11.62845 38215 ft 390 kts 280°
2026-04-16 14:19 50.49122 11.54447 38215 ft 389 kts 279°
2026-04-16 14:20 50.49979 11.46064 38212 ft 389 kts 279°
2026-04-16 14:20 50.50834 11.37677 38214 ft 389 kts 279°
2026-04-16 14:21 50.51686 11.29291 38214 ft 389 kts 279°
2026-04-16 14:21 50.52522 11.20898 38214 ft 389 kts 279°
2026-04-16 14:22 50.53351 11.12512 38222 ft 388 kts 279°
2026-04-16 14:22 50.54182 11.04129 38228 ft 388 kts 279°
2026-04-16 14:23 50.55010 10.95757 38228 ft 387 kts 279°
2026-04-16 14:23 50.55817 10.87383 38230 ft 387 kts 279°
2026-04-16 14:24 50.56621 10.79006 38227 ft 387 kts 279°
2026-04-16 14:24 50.57409 10.70641 38216 ft 387 kts 279°
2026-04-16 14:25 50.57220 10.62202 37055 ft 403 kts 254°
2026-04-16 14:25 50.56166 10.58022 35846 ft 417 kts 251°
2026-04-16 14:25 50.55047 10.53780 34932 ft 421 kts 251°
2026-04-16 14:26 50.53922 10.49540 34157 ft 420 kts 252°
2026-04-16 14:26 50.52806 10.45307 33217 ft 418 kts 252°
2026-04-16 14:26 50.51700 10.41081 31941 ft 419 kts 251°
2026-04-16 14:26 50.50596 10.36835 30596 ft 422 kts 251°
2026-04-16 14:27 50.49491 10.32567 29022 ft 425 kts 251°
2026-04-16 14:27 50.48377 10.28264 27662 ft 424 kts 251°
2026-04-16 14:27 50.47267 10.23990 26425 ft 421 kts 251°
2026-04-16 14:27 50.46165 10.19763 25267 ft 417 kts 251°
2026-04-16 14:28 50.45068 10.15575 24166 ft 413 kts 251°
2026-04-16 14:28 50.43979 10.11423 23001 ft 410 kts 251°
2026-04-16 14:28 50.42897 10.07312 21864 ft 406 kts 250°
2026-04-16 14:28 50.41824 10.03242 20824 ft 401 kts 250°
2026-04-16 14:29 50.40763 9.99224 19856 ft 397 kts 250°
2026-04-16 14:29 50.39708 9.95232 19114 ft 395 kts 250°
2026-04-16 14:29 50.38663 9.91273 18463 ft 392 kts 250°
2026-04-16 14:29 50.37627 9.87351 17732 ft 388 kts 250°
2026-04-16 14:30 50.36596 9.83452 17076 ft 385 kts 250°
2026-04-16 14:30 50.35573 9.79595 16470 ft 382 kts 249°
2026-04-16 14:30 50.34565 9.75812 15817 ft 380 kts 249°
2026-04-16 14:30 50.33539 9.71972 15188 ft 377 kts 249°
2026-04-16 14:31 50.32546 9.68255 14643 ft 372 kts 249°
2026-04-16 14:31 50.31870 9.65733 14214 ft 371 kts 249°
2026-04-16 14:31 50.30559 9.60851 13406 ft 365 kts 249°
2026-04-16 14:31 50.29585 9.57222 12835 ft 358 kts 249°
2026-04-16 14:32 50.28936 9.54808 12450 ft 354 kts 249°
2026-04-16 14:32 50.27687 9.50158 11696 ft 346 kts 248°
2026-04-16 14:32 50.26762 9.46715 11125 ft 340 kts 248°
2026-04-16 14:32 50.26146 9.44431 10886 ft 333 kts 248°
2026-04-16 14:33 50.25267 9.41181 10757 ft 317 kts 248°
2026-04-16 14:33 50.24429 9.38089 10634 ft 302 kts 248°
2026-04-16 14:33 50.23628 9.35129 10513 ft 289 kts 248°
2026-04-16 14:33 50.22857 9.32288 10309 ft 281 kts 248°
2026-04-16 14:34 50.22103 9.29509 10116 ft 276 kts 248°
2026-04-16 14:34 50.21354 9.26753 9983 ft 276 kts 248°
2026-04-16 14:34 50.20592 9.23958 9599 ft 280 kts 247°
2026-04-16 14:34 50.19845 9.21223 9194 ft 278 kts 247°
2026-04-16 14:35 50.19091 9.18464 8790 ft 275 kts 247°
2026-04-16 14:35 50.18343 9.15726 8367 ft 273 kts 247°
2026-04-16 14:35 50.17600 9.13003 7932 ft 272 kts 248°
2026-04-16 14:35 50.16848 9.10257 7499 ft 271 kts 248°
2026-04-16 14:36 50.16112 9.07570 7014 ft 268 kts 248°
2026-04-16 14:36 50.15379 9.04898 6393 ft 269 kts 248°
2026-04-16 14:36 50.14637 9.02204 5653 ft 273 kts 248°
2026-04-16 14:36 50.13854 8.99553 5343 ft 260 kts 243°
2026-04-16 14:37 50.13088 8.97075 5044 ft 253 kts 248°
2026-04-16 14:37 50.12460 8.94516 4484 ft 257 kts 251°
2026-04-16 14:37 50.11852 8.91878 4069 ft 255 kts 250°
2026-04-16 14:37 50.11264 8.89360 4001 ft 238 kts 250°
2026-04-16 14:38 50.10717 8.87031 4004 ft 221 kts 250°
2026-04-16 14:38 50.10198 8.84825 3836 ft 214 kts 250°
2026-04-16 14:38 50.09691 8.82671 3580 ft 211 kts 250°
2026-04-16 14:38 50.09186 8.80527 3307 ft 210 kts 250°
2026-04-16 14:39 50.08684 8.78400 3022 ft 207 kts 250°
2026-04-16 14:39 50.08191 8.76309 2751 ft 204 kts 250°
2026-04-16 14:39 50.07703 8.74259 2423 ft 199 kts 250°
2026-04-16 14:39 50.07247 8.72322 2313 ft 180 kts 250°
2026-04-16 14:40 50.06833 8.70575 2041 ft 165 kts 249°
2026-04-16 14:40 50.06447 8.68947 1748 ft 156 kts 249°
2026-04-16 14:40 50.06090 8.67416 1603 ft 146 kts 249°
2026-04-16 14:40 50.05739 8.65940 1402 ft 147 kts 249°
2026-04-16 14:41 50.05380 8.64451 1169 ft 146 kts 251°
2026-04-16 14:41 50.05034 8.62996 969 ft 143 kts 251°
2026-04-16 14:41 50.04688 8.61536 780 ft 145 kts 252°
2026-04-16 14:41 50.04339 8.60074 594 ft 145 kts 252°
2026-04-16 14:42 50.03993 8.58615 403 ft 143 kts 253°
2026-04-16 14:42 50.03680 8.57284 355 ft 117 kts 249°
2026-04-16 14:42 50.03461 8.56366 358 ft 60 kts 250°
2026-04-16 14:42 50.03335 8.55852 345 ft 38 kts 251°
2026-04-16 14:43 50.03311 8.55510 343 ft 31 kts 276°
2026-04-16 14:43 50.03346 8.55195 342 ft 27 kts 280°
2026-04-16 14:43 50.03384 8.54997 348 ft 16 kts 298°
2026-04-16 14:43 50.03438 8.54856 343 ft 11 kts 326°
2026-04-16 14:44 50.03515 8.54809 346 ft 14 kts 340°
2026-04-16 14:44 50.03620 8.54748 347 ft 18 kts 339°
2026-04-16 14:44 50.03735 8.54718 346 ft 16 kts 22°
2026-04-16 14:44 50.03789 8.54861 350 ft 16 kts 69°
2026-04-16 14:45 50.03829 8.55032 353 ft 18 kts 70°
2026-04-16 14:45 50.03874 8.55215 355 ft 19 kts 70°
2026-04-16 14:45 50.03921 8.55416 349 ft 19 kts 68°
2026-04-16 14:45 50.04006 8.55446 353 ft 14 kts 339°
2026-04-16 14:46 50.04098 8.55404 352 ft 13 kts
2026-04-16 14:46 50.04120 8.55497 356 ft 5 kts 142°
2026-04-16 14:46 50.04081 8.55523 358 ft 6 kts 160°
2026-04-16 14:46 50.04046 8.55543 356 ft 4 kts 159°
2026-04-16 14:47 50.04040 8.55546 354 ft 0 kts 160°